sat.trackr.live / text

‹ back to catalog

STARLINK-33630

NORAD 63477 · 2025-070T

PAYLOAD ACTIVE UNKNOWN

§ Identity

Operator
Country
US
Launch date
2025-04-06
Launch site
AFETR
Launch vehicle
Mass (kg)
RCS (m²)

Purposes: comms

External: N2YO · Heavens-Above · Gunter

§ Orbital elements

Epoch: 2026-09-20T15:30:09.215136Z

Period
94.27 min
Inclination
42.9999°
Eccentricity
0.0000558
Mean motion
15.27588229 rev/d
Perigee alt
482.6 km
Apogee alt
483.4 km
Semi-major
6,861.2 km
B*
4.6400e-4
RAAN
235.2110°
Arg perigee
298.3320°
Mean anomaly
61.7476°
Rev number
8,283

§ Raw data

STARLINK-336301 63477U 25070T   26263.64593999  .00012531  00000+0  46400-3 0  99922 63477  42.9999 235.2110 0000558 298.3320  61.7476 15.27588229 82831

JSON: /api/v1/satellites/63477 · /tle

For live sub-satellite position, see the globe view (requires WebGL).

§ Visibility from observer

Set your observer location to see the next 7 days of passes ≥ 10°. The values pass through the URL so the page stays shareable.

No JS? Fill the form by hand. The geolocation button needs JavaScript.